JCSAT-5A

Last updated on Jan. 17, 2021, 6:29 a.m. UTC

1 29045U 06010A   21016.74424610 -.00000332  00000-0  00000-0 0  9994
2 29045   0.0404 227.7827 0001072  75.5937 212.9759  1.00271361 53937
UTC
Height (km)
Latitude
Longitude
Inclination
Orbital Period
UTC large
Height (km)
Speed (km/s)
/
Latitude / Longitude
Inclination (degrees)
Orbital Period (minutes)
Azimuth
Elevation
Range (km)
Doppler Factor
iOS Compass Heading
iOS Angle

Next 30 passes for location: Hong Kong

Rise time Rise Azimuth (degrees) Set time Set Azimuth (degrees) Duration Max altitude (degrees)

No matching passes for this satellites